STARLINK-2430

Last updated on Sat May 08 2021 00:02:03 GMT+0000 (Coordinated Universal Time)

1 48100U 21027J 21127.58334491 .00051951 00000-0 37206-3 0 9997 2 48100 53.0474 191.7643 0002428 23.5261 270.6409 15.73208224 1771

Satellite not in orbit

STARLINK-2430